GFSGL_sfc_dewp_000.txt.gz
Dewpoint
24 24 24 24 23 23 22 22 21 21 19 19 19 18 18 18 19 19 19 19 18 19 19 19 20 21 20 19 19 18 18 18 15 14 13 13 12 13 12 14 15 13 14
25 24 24 24 23 22 22 21 21 20 20 19 18 18 17 17 18 18 19 19 18 18 18 19 18 18 16 15 14 14 15 16 15 13 12 11 12 12 13 13 12 12 14
27 26 25 24 23 23 22 21 21 21 20 19 18 17 17 16 17 17 17 17 17 16 17 17 16 16 14 13 11 12 12 10 13 12 11 12 12 13 13 14 16 16 15
28 27 25 25 24 23 23 22 21 21 20 19 18 17 17 16 16 15 15 16 16 16 16 15 14 13 14 13 12 12 13 12 12 11 12 12 12 14 16 15 15 15 15
27 27 27 27 25 25 25 25 23 22 20 19 18 18 17 16 15 15 14 17 16 15 15 13 12 12 16 14 12 13 13 12 12 11 11 13 14 14 14 14 14 16 17
28 28 27 28 27 26 26 26 23 22 21 20 20 19 17 15 22 23 17 17 16 12 12 11 11 14 16 19 19 18 15 8 3 6 14 14 15 15 14 14 15 15 15
29 29 28 27 27 27 26 25 23 22 21 20 19 19 18 17 23 25 24 16 15 11 10 9 9 10 14 16 21 20 20 21 17 14 17 17 15 14 15 17 18 18 16
29 28 27 26 25 25 23 24 23 21 21 20 19 19 18 17 23 27 26 17 15 11 9 9 9 11 13 14 16 19 19 18 17 16 16 16 16 17 20 21 20 14 12
29 29 27 25 23 23 22 22 22 22 21 22 21 21 20 19 23 28 25 18 16 13 9 9 9 10 16 18 14 14 15 15 16 20 21 22 21 19 19 14 6 5 6
25 27 27 24 21 20 20 19 21 22 22 20 21 21 20 20 23 27 26 18 16 15 12 10 16 11 18 20 14 12 11 14 17 15 17 16 14 12 12 12 9 -1 6
21 20 26 26 23 21 21 18 19 20 19 18 18 19 19 19 20 27 28 18 16 15 14 13 12 18 19 22 20 15 14 16 16 12 10 9 7 7 8 9 9 10 8
17 19 22 23 24 21 20 18 18 19 18 16 16 15 16 17 20 25 29 22 19 15 14 12 13 19 20 22 21 20 20 16 5 1 -0 3 5 6 7 8 8 10 10
13 14 15 18 23 22 21 20 18 18 16 13 13 13 13 15 17 24 30 26 21 16 14 15 18 21 21 21 22 21 16 8 4 -4 -0 3 4 5 6 7 8 8 8
7 7 9 12 16 22 20 20 18 18 17 17 15 14 13 13 14 17 24 27 22 18 19 18 19 21 21 16 19 17 9 7 5 4 4 4 5 5 5 6 5 5 4
3 4 5 8 11 17 19 19 18 19 19 18 18 18 15 14 15 20 26 25 22 17 18 18 18 16 13 9 7 6 5 6 4 5 5 4 3 4 4 5 4 3 1
-1 -0 1 5 8 12 18 17 22 23 23 25 25 21 19 20 22 25 28 29 24 23 16 15 13 11 9 7 6 4 3 4 4 4 3 3 2 2 2 2 3 1 -0
-4 -3 -1 2 5 9 16 15 14 16 24 25 26 26 25 21 24 25 28 29 27 24 14 11 10 8 9 8 6 4 3 3 3 2 1 1 1 1 -0 -1 -0 1 -0
-4 -3 -1 1 4 8 12 15 14 14 13 18 24 25 27 25 26 25 27 29 24 21 11 10 9 8 7 6 4 3 2 1 -1 -1 -1 -2 -4 -5 -5 -4 -2 -2 -1
-5 -3 -1 1 5 8 10 15 13 13 14 15 19 22 25 26 23 26 27 23 20 10 9 9 8 6 5 3 2 1 -1 -3 -4 -5 -7 -9 -9 -9 -8 -5 -3 -1 -1
-4 -3 -0 1 2 4 8 13 12 11 12 14 15 18 22 22 20 21 23 23 14 9 8 6 4 3 1 -0 -2 -5 -7 -9 -9 -11 -12 -12 -11 -10 -6 -5 -3 -2 -2
-3 -3 -2 0 3 6 9 11 10 10 11 13 14 18 22 18 17 19 22 14 10 6 6 3 0 -1 -3 -6 -8 -10 -11 -9 -11 -13 -13 -15 -13 -11 -7 -4 -4 -2 1
-0 -1 -1 -0 3 7 10 10 10 10 11 12 15 18 24 18 17 10 10 8 7 5 3 0 -2 -5 -7 -9 -9 -11 -11 -13 -16 -15 -16 -14 -12 -10 -8 -6 -3 0 2
3 4 5 6 7 9 9 9 9 10 11 12 14 16 16 9 8 5 -0 -1 -1 -3 -2 -3 -7 -9 -10 -10 -12 -10 -11 -13 -15 -19 -18 -16 -14 -12 -9 -6 -2 0 0
2 3 4 5 5 5 5 5 7 8 8 11 5 4 2 2 -1 -3 -3 -4 -5 -7 -8 -8 -9 -11 -13 -15 -16 -17 -19 -18 -20 -19 -20 -17 -12 -11 -7 -4 0 1 -0
-0 0 0 2 3 3 3 3 4 3 1 0 -1 -1 -2 -2 -4 -5 -5 -6 -8 -10 -12 -12 -13 -14 -16 -18 -18 -21 -20 -10 -12 -15 -17 -12 -12 -10 -4 -2 1 0 -3
-2 -2 -1 -0 0 1 1 -0 -1 -1 -2 -2 -2 -2 -3 -4 -5 -6 -7 -9 -11 -11 -12 -13 -14 -16 -17 -16 -18 -15 -14 -8 -11 -10 -11 -8 -3 3 -4 -2 -0 -2 -6

GFSGL_sfc_dewp_003.txt.gz
Dewpoint
28 28 27 26 25 25 24 23 24 24 23 23 22 22 21 20 20 20 19 20 20 20 18 19 19 21 21 21 22 20 18 16 17 13 12 14 13 12 11 13 14 13 14
29 29 29 27 26 25 24 24 24 23 23 22 21 21 20 20 19 19 20 21 20 20 18 18 18 21 21 20 20 19 19 17 15 16 11 10 11 11 11 13 13 13 14
29 29 29 28 28 27 25 25 24 23 23 22 21 20 20 19 19 18 17 18 19 18 18 17 18 20 21 19 18 17 16 15 15 13 11 11 11 12 12 14 15 16 15
29 29 28 28 28 28 28 27 26 24 23 22 21 20 20 19 18 18 17 18 18 18 18 17 17 17 19 19 18 18 17 16 15 12 11 10 11 12 15 15 15 15 15
29 29 28 29 28 28 29 29 29 27 23 22 21 21 20 19 18 18 16 19 18 16 17 16 16 17 20 19 16 17 16 16 15 13 10 11 12 14 14 15 14 17 19
28 29 29 29 28 27 28 27 27 28 26 25 23 22 21 18 24 27 20 19 19 14 15 16 15 19 20 22 21 20 17 15 14 14 11 11 13 15 15 14 15 17 16
27 27 29 29 27 25 27 27 25 26 26 24 24 23 22 21 27 29 28 19 19 15 14 14 13 14 18 18 22 21 20 19 16 13 16 14 15 16 15 16 18 18 16
25 25 25 24 22 25 26 26 25 25 25 25 24 24 23 22 26 29 29 21 19 17 14 14 12 13 15 17 18 20 19 18 16 15 16 18 16 16 18 20 19 17 13
20 20 21 20 19 24 25 24 24 23 24 25 25 25 25 24 26 29 29 25 20 19 13 13 12 12 18 22 20 21 19 19 21 23 22 21 21 23 23 18 14 13 10
17 17 17 17 19 23 22 24 24 22 22 23 24 24 24 24 25 26 30 27 22 19 15 11 18 14 20 24 21 21 20 20 20 21 20 21 22 18 16 14 13 10 10
15 13 12 13 15 18 20 23 23 22 21 21 21 22 22 23 23 25 28 27 22 21 18 14 14 20 24 25 23 20 20 20 20 19 20 17 14 12 9 10 11 12 11
10 8 8 8 10 13 14 17 22 21 20 20 19 19 19 21 22 24 26 30 25 21 19 16 18 22 24 27 25 21 21 20 20 17 16 13 11 8 8 9 9 9 10
5 3 3 4 6 8 10 13 18 21 19 20 19 18 18 19 21 26 27 29 28 22 21 21 20 22 25 27 26 22 20 17 15 12 11 10 6 7 7 8 7 7 7
-0 -1 0 1 2 4 6 9 14 19 20 19 19 18 18 18 18 19 24 29 28 24 21 20 20 23 25 25 24 21 18 15 13 13 9 6 6 6 6 6 6 6 5
-3 -3 -3 -3 -2 0 3 7 11 18 20 19 20 19 19 17 17 21 23 24 26 23 19 19 20 22 21 21 20 16 13 12 11 10 8 7 6 5 5 6 5 5 3
-7 -7 -7 -5 -4 -3 -1 2 11 15 19 24 24 24 21 22 23 25 26 28 29 24 18 18 19 20 15 16 13 12 11 9 9 8 8 6 5 5 4 4 4 3 2
-7 -6 -6 -6 -5 -4 -2 1 3 9 18 22 24 26 27 25 24 26 27 29 30 25 18 18 18 18 16 15 12 10 8 9 10 8 6 5 5 4 3 2 2 1 1
-6 -6 -6 -6 -6 -5 -3 1 4 7 10 16 20 22 27 27 27 26 27 29 25 24 19 18 17 16 14 12 11 10 9 8 7 6 5 5 3 2 0 0 0 -0 -0
-6 -6 -6 -6 -5 -4 -2 -1 3 5 8 15 15 18 21 28 29 26 27 25 23 20 17 17 15 14 12 12 11 10 8 6 5 4 2 -0 -1 -2 -2 -2 -1 -1 -1
-5 -4 -3 -3 -3 -3 -2 0 1 4 8 13 14 15 19 24 25 22 24 24 25 21 15 14 13 13 12 9 7 6 4 2 0 -1 -2 -3 -3 -3 -2 -3 -2 -1 -1
-4 -4 -3 -3 -3 -3 -2 -0 3 6 11 12 12 15 19 21 22 21 21 23 19 13 13 10 9 8 7 5 3 2 1 -1 -2 -4 -4 -4 -5 -5 -4 -3 -2 -2 -2
-1 -1 -1 -1 -1 -2 -1 2 5 9 10 10 11 14 18 22 21 20 17 13 12 11 9 6 4 3 2 2 1 -0 -2 -3 -4 -5 -5 -6 -6 -6 -7 -5 -4 -3 -1
-2 -1 -1 1 4 4 2 5 8 9 9 10 12 14 15 12 7 5 3 4 4 4 4 2 -0 -2 -1 -0 0 -0 -2 -4 -4 -6 -7 -7 -9 -8 -9 -7 -5 -4 -2
-2 -2 -1 0 2 3 4 5 6 7 4 2 2 2 2 2 1 -1 -1 -1 -1 0 1 1 -1 -2 -4 -5 -5 -4 -4 -6 -7 -8 -9 -9 -10 -10 -9 -8 -6 -4 -0
-3 -3 -2 -2 -1 -0 -0 -1 -1 -1 -1 -1 -1 -1 -2 -2 -2 -2 -3 -2 -2 -2 -3 -3 -3 -5 -7 -10 -10 -11 -12 -8 -14 -14 -14 -14 -12 -10 -10 -8 -4 -1 0
-6 -6 -5 -4 -4 -4 -4 -4 -4 -3 -4 -3 -3 -3 -3 -3 -3 -3 -3 -4 -5 -6 -6 -8 -10 -11 -12 -13 -14 -14 -14 -10 -11 -11 -14 -13 -9 -8 -7 -3 -2 -0 0

GFSGL_sfc_dewp_006.txt.gz
Dewpoint
25 26 28 29 29 29 29 28 28 28 27 28 28 28 28 27 27 26 25 24 24 24 22 23 22 24 22 20 20 20 18 19 24 13 15 22 22 18 12 14 15 14 15
24 25 26 26 27 27 28 29 30 28 28 27 26 26 27 26 26 25 24 24 24 22 22 20 19 21 23 21 21 20 19 16 17 19 12 14 13 14 12 13 12 11 13
23 25 26 28 27 25 25 29 30 30 28 27 26 25 25 25 24 24 23 22 22 21 21 19 18 22 24 22 20 19 19 15 17 18 13 10 10 12 11 13 14 17 15
20 23 24 26 26 25 25 26 29 30 30 28 26 25 25 24 23 23 22 22 22 21 21 19 17 18 21 23 22 23 24 23 20 15 14 9 9 12 13 14 16 16 15
17 20 22 24 25 25 26 27 28 28 29 29 27 26 24 23 22 23 21 23 22 20 19 18 17 18 22 23 21 24 24 24 22 19 12 9 9 11 13 16 15 16 19
22 23 23 27 28 25 24 25 26 26 27 29 28 28 26 23 27 29 26 22 22 19 18 18 17 22 23 27 27 25 24 23 22 21 14 11 10 12 15 14 14 16 17
25 24 25 25 24 22 21 22 25 23 25 25 26 28 27 27 29 30 29 25 22 21 18 16 16 15 21 20 26 25 24 24 22 18 17 13 12 14 15 15 16 19 17
24 22 23 22 21 19 18 19 24 23 23 23 24 26 27 26 28 30 30 27 25 22 20 18 17 16 19 18 21 23 22 21 19 16 15 15 15 17 17 18 21 23 19
19 17 19 20 19 16 16 16 19 21 22 25 25 26 28 29 29 29 30 29 27 26 21 19 17 16 20 23 21 23 22 21 21 20 17 20 21 22 20 24 22 19 16
15 15 16 17 16 14 14 15 17 20 21 21 24 25 26 28 28 28 28 29 29 27 25 19 22 19 21 24 22 23 21 20 19 20 21 24 23 22 23 22 21 18 14
15 15 15 14 13 12 12 13 14 15 16 18 20 23 24 26 27 28 28 28 28 29 27 24 18 23 22 23 24 24 23 22 22 22 24 24 22 24 24 20 15 14 14
12 10 10 10 9 9 8 9 10 12 13 15 19 21 21 23 25 26 27 28 28 29 28 24 21 21 23 23 24 24 24 23 23 24 22 21 20 19 16 12 11 12 12
6 4 4 4 5 5 5 6 7 9 10 12 14 18 19 20 24 25 27 27 29 28 30 25 22 21 23 22 25 26 25 23 22 21 20 18 18 17 12 11 10 10 9
-0 -0 0 -0 1 1 2 2 4 5 7 10 13 17 20 20 21 23 24 25 29 29 31 26 23 22 22 25 25 28 26 21 21 19 18 17 16 13 11 10 9 9 8
-2 -2 -2 -2 -2 -2 -1 -0 1 4 6 8 11 16 19 20 22 23 23 24 27 28 26 25 23 23 23 24 25 24 23 20 18 18 17 14 12 10 8 8 8 8 7
-2 -3 -4 -4 -4 -4 -4 -4 3 7 10 12 14 15 16 20 24 23 24 25 27 30 23 22 21 21 22 23 24 21 19 17 17 15 14 12 11 9 9 9 8 7 6
-5 -4 -5 -4 -5 -5 -4 -4 -5 -1 7 9 12 15 17 23 23 27 26 26 26 29 22 21 21 21 23 23 21 16 15 16 16 14 12 11 10 9 9 8 7 6 5
-5 -5 -5 -5 -4 -4 -4 -4 -4 -4 -4 -0 7 13 18 25 28 29 30 27 25 26 24 21 22 22 23 21 19 17 16 14 14 13 11 10 10 9 8 7 6 5 5
-4 -4 -3 -3 -3 -3 -2 -2 -3 -3 -2 -1 3 8 14 20 21 24 30 26 23 24 23 21 22 23 21 21 17 16 14 13 12 10 9 8 8 7 6 6 5 4 3
-2 -2 -2 -2 -2 -2 -2 -1 -1 -1 0 1 4 8 17 18 19 23 28 25 24 26 24 21 21 19 18 16 16 13 12 10 9 8 7 6 5 6 4 4 4 3 3
-2 -1 -1 0 0 0 0 -0 -1 -1 1 3 6 14 17 18 18 21 25 24 24 26 20 17 16 16 15 14 12 10 9 7 6 5 4 4 3 3 4 3 3 3 2
-0 -1 -0 0 2 3 5 5 2 2 4 7 11 13 16 16 18 21 23 22 19 18 18 16 13 12 11 10 9 8 6 5 5 4 3 2 2 2 2 2 2 2 2
-2 -1 -0 1 2 4 5 7 6 7 9 10 10 11 11 11 11 11 10 11 12 11 11 9 7 7 7 8 9 8 5 4 4 4 2 1 1 1 1 1 1 0 1
-3 -2 -1 -0 0 0 2 3 2 2 3 3 3 3 3 4 3 3 4 5 6 6 6 5 5 4 4 5 6 6 5 4 4 4 3 1 -0 -0 0 -0 0 0 1
-4 -4 -3 -3 -2 -2 -1 -0 -0 1 1 0 -0 0 1 0 0 1 2 2 3 3 3 3 3 2 1 1 1 -0 3 2 0 -1 -1 -1 -1 -2 -1 -1 -0 1 2
-6 -6 -5 -5 -4 -4 -4 -4 -3 -2 -2 -2 -2 -2 -2 -2 -1 -1 -1 -0 -1 -0 0 0 1 -0 -1 -2 -4 -1 -1 -3 -7 -7 -6 -5 -4 -2 -2 -2 -2 1 2

GFSGL_sfc_dewp_009.txt.gz
Dewpoint
21 23 26 25 23 22 23 25 29 32 31 30 30 31 32 32 32 31 30 29 28 28 26 26 26 27 26 26 27 27 27 28 34 20 22 27 26 23 21 20 20 17 19
18 20 24 24 26 24 21 22 27 27 30 31 30 29 30 30 30 30 29 28 28 27 26 24 23 23 25 24 24 24 23 24 30 22 20 24 24 23 17 17 14 12 16
17 19 21 23 24 23 23 24 25 26 27 28 30 29 29 28 28 28 28 27 27 26 26 24 21 23 25 22 21 21 22 17 23 24 19 21 20 21 18 16 16 16 12
17 17 21 23 22 22 22 22 23 25 25 25 27 29 29 28 27 27 26 26 26 26 25 25 22 20 23 23 23 23 24 23 23 24 18 14 13 16 15 14 15 17 17
14 20 18 21 21 24 25 23 22 24 24 24 25 27 28 28 26 26 25 26 25 24 24 23 22 22 24 24 22 24 24 24 22 21 17 12 11 14 12 15 16 19 20
19 23 21 23 24 24 24 22 20 20 23 23 23 23 25 25 29 31 31 28 25 23 23 23 22 24 25 29 29 27 26 25 23 21 16 11 10 11 13 15 16 19 19
23 24 25 23 22 22 21 19 17 17 18 20 20 20 22 22 27 30 32 32 31 27 23 22 21 19 23 20 27 30 29 29 26 20 18 13 12 12 14 18 17 18 22
21 21 23 21 19 19 19 17 15 15 16 16 17 19 20 21 24 27 30 30 30 30 26 24 22 21 20 19 19 25 25 25 25 22 18 15 12 14 16 18 20 23 21
16 17 17 18 18 17 17 16 14 15 15 15 16 18 20 21 24 26 27 29 29 29 28 26 24 22 24 27 21 23 25 24 27 29 24 24 22 22 21 23 22 22 21
14 14 15 16 16 15 14 14 14 14 13 12 14 15 16 17 20 23 23 26 28 28 28 27 28 26 27 28 24 23 24 24 24 25 21 22 22 23 25 23 24 21 20
13 12 12 12 11 11 11 11 11 10 10 9 10 11 13 14 16 20 23 23 26 26 27 28 28 30 29 28 27 24 24 25 26 24 22 21 23 22 22 24 23 21 19
9 7 6 6 6 6 5 5 5 5 5 5 7 8 10 13 16 19 22 24 25 26 27 27 28 31 29 29 27 26 26 26 24 23 21 22 23 23 24 23 21 19 19
4 2 1 2 2 2 1 1 1 2 2 3 3 4 5 9 12 17 20 23 25 25 27 28 30 31 30 27 28 27 26 24 22 21 20 21 22 22 23 18 16 17 16
-0 -0 -0 -1 -1 -0 -0 -0 -1 -1 -1 -0 -0 2 4 7 10 14 19 22 23 25 26 26 30 33 31 26 24 27 24 25 23 21 20 20 21 21 17 16 15 15 13
-1 -1 -2 -2 -2 -2 -1 -2 -2 0 2 0 1 2 2 2 5 11 18 22 25 24 24 26 28 29 25 25 24 25 25 27 23 22 22 22 19 17 15 15 14 13 11
-4 -5 -5 -5 -5 -5 -5 -4 3 6 8 10 11 10 8 13 14 16 18 19 20 27 26 24 25 25 22 21 24 23 25 25 23 23 22 19 16 15 13 14 14 12 10
-5 -5 -5 -5 -5 -6 -5 -4 -5 -2 6 8 9 10 11 12 15 16 17 19 24 21 25 23 24 23 22 22 24 24 24 22 22 20 17 16 15 14 12 12 12 11 10
-4 -5 -5 -5 -4 -3 -3 -2 -2 -3 -3 -3 3 6 9 12 13 15 16 21 19 22 25 23 24 23 22 22 24 24 22 19 18 17 16 16 15 13 12 11 10 8 8
-5 -5 -4 -3 -2 -2 -1 -1 -1 -1 -1 -1 0 4 6 13 17 19 24 22 23 22 23 23 24 24 23 24 23 21 19 17 17 16 15 14 13 12 10 10 9 8 8
-4 -3 -2 -2 -1 -0 -0 0 1 1 0 0 0 1 5 9 12 16 17 19 20 24 23 24 24 24 24 21 19 18 17 16 15 14 13 12 11 11 9 8 7 6 6
-3 -2 -2 -1 -1 -0 2 3 4 6 4 2 2 4 13 15 13 14 17 20 25 24 25 24 23 21 20 19 17 16 15 13 13 11 10 9 9 8 8 8 7 6 6
-2 -2 -2 -2 0 1 2 3 4 5 5 6 7 9 14 11 12 14 16 19 20 20 19 18 19 19 18 16 15 13 12 10 8 8 7 7 8 7 7 6 5 4 4
-3 -3 -4 -3 -1 -0 0 2 2 2 2 3 3 3 4 4 5 6 8 10 12 13 15 15 12 11 13 13 13 11 9 7 8 7 5 5 5 5 5 4 5 4 3
-4 -4 -4 -4 -3 -3 -1 -1 0 -0 -0 -0 -0 1 1 2 3 3 4 6 6 6 6 7 8 8 9 9 10 10 9 8 8 7 6 5 4 4 4 3 3 3 3
-4 -5 -5 -5 -5 -5 -4 -3 -2 -2 -2 -2 -2 -1 -0 0 0 1 2 3 3 3 3 4 4 4 4 5 5 5 8 8 6 7 6 5 3 3 2 2 2 2 2
-7 -7 -6 -6 -6 -6 -5 -5 -4 -3 -3 -2 -2 -2 -1 -1 -1 -1 -0 0 -0 -0 0 1 1 1 1 2 1 4 5 5 2 4 4 3 1 0 0 0 0 1 2

GFSGL_sfc_dewp_015.txt.gz
Dewpoint
19 20 23 24 24 23 22 22 22 23 24 25 26 26 26 26 27 28 28 29 29 29 30 29 29 29 29 29 29 28 27 25 22 20 23 25 27 28 28 27 24 24 26
18 18 19 21 22 21 22 22 22 21 22 23 25 25 25 26 26 26 26 28 28 28 28 29 28 28 28 28 28 28 28 27 25 23 22 26 28 28 27 26 21 19 22
18 19 18 19 19 20 20 22 23 22 21 20 20 21 22 24 25 25 25 26 26 28 28 28 28 28 28 28 27 26 27 25 26 24 21 25 26 28 24 25 21 19 17
16 17 18 19 20 21 21 22 23 22 21 20 19 19 19 21 21 24 25 25 26 26 27 28 28 27 28 28 28 28 27 27 26 24 21 22 22 24 24 23 20 19 16
16 17 17 18 18 20 20 21 21 21 19 19 18 17 15 14 12 15 18 22 25 26 26 27 28 28 29 30 28 28 28 28 27 26 22 19 19 22 22 21 21 20 19
17 19 20 20 21 21 20 20 20 18 17 17 16 16 15 11 17 20 19 17 18 19 20 22 26 28 30 32 33 34 32 29 28 27 24 20 18 19 22 20 19 17 16
19 18 18 20 19 19 19 18 15 14 14 13 14 14 14 14 19 20 20 17 17 16 17 19 21 23 27 27 29 33 34 35 35 27 25 23 20 18 21 20 19 18 16
18 16 17 18 17 16 13 12 11 11 11 11 11 11 11 11 17 18 18 15 15 15 16 17 19 20 22 25 26 26 28 31 33 33 31 26 23 20 19 22 22 22 23
15 16 16 14 11 10 8 8 8 8 7 7 8 8 8 7 13 14 13 11 12 12 11 13 15 16 21 26 25 26 26 27 31 35 35 35 34 31 22 22 23 21 20
13 12 10 10 7 6 5 4 4 4 5 3 4 4 4 3 9 11 11 9 9 9 10 9 15 15 20 22 22 24 25 25 27 29 31 34 36 35 32 21 21 20 19
11 8 7 6 4 3 2 2 1 1 1 -0 0 1 1 2 2 10 11 9 10 10 11 11 12 18 19 21 23 24 25 26 27 27 28 29 31 33 33 29 20 20 20
5 4 2 -0 0 2 -1 -1 -1 -2 -2 -3 -2 -2 -1 0 4 7 10 11 11 7 8 9 13 19 19 21 22 24 28 30 27 26 27 28 28 30 32 32 26 22 22
-2 -5 -4 -2 -0 -0 -3 -4 -4 -4 -4 -4 -3 -4 -4 -3 -1 7 9 10 10 5 4 6 12 13 15 20 24 27 26 27 27 28 27 26 27 27 28 29 30 30 27
-10 -4 -1 -2 -3 -3 -3 -4 -5 -5 -5 -4 -4 -4 -2 1 5 6 7 6 9 7 8 5 8 11 14 18 18 25 24 27 30 29 29 26 26 26 28 28 26 24 24
-4 -2 -2 -2 -4 -4 -3 -4 -3 -0 2 3 5 6 6 5 6 12 14 12 13 14 12 10 9 11 12 12 15 25 24 24 26 30 29 27 26 26 25 26 25 23 22
-4 -3 -3 -3 -4 -4 -5 -5 3 7 9 11 12 10 9 14 15 15 17 18 19 19 15 10 8 8 7 8 13 18 20 21 25 28 28 27 25 24 23 24 24 21 21
-8 -4 -4 -4 -5 -6 -6 -6 -6 -2 7 8 10 11 12 14 16 16 17 18 19 18 14 9 7 7 9 10 13 17 22 22 25 28 27 26 24 23 23 22 21 19 19
-13 -6 -6 -6 -6 -6 -6 -4 -4 -4 -4 -3 4 8 11 12 13 15 17 17 12 12 12 12 10 9 9 12 12 14 23 25 25 27 27 25 24 23 22 19 19 17 18
-9 -6 -6 -6 -5 -4 -4 -4 -4 -3 -2 -3 -1 2 4 9 13 11 12 5 6 7 10 13 12 12 12 13 14 17 21 22 23 25 23 24 23 21 19 18 18 18 17
-12 -6 -4 -5 -6 -6 -5 -5 -4 -4 -4 -4 -4 -3 -1 5 -2 -2 0 3 3 5 6 8 15 18 16 15 16 20 21 22 22 24 23 22 21 20 18 17 16 16 15
-8 -6 -7 -8 -8 -7 -6 -6 -6 -5 -5 -5 -5 -2 10 1 -2 -2 -1 -0 1 2 4 7 11 18 21 23 22 22 22 21 21 20 19 19 19 17 18 17 15 15 14
-9 -11 -10 -10 -8 -8 -8 -7 -7 -6 -6 -5 -5 -3 7 -2 -3 -3 -2 -1 1 2 3 5 7 9 11 14 18 19 18 17 17 17 16 16 16 14 14 13 13 11 11
-11 -12 -11 -12 -11 -9 -9 -10 -9 -7 -6 -5 -4 -4 -3 -3 -3 -3 -3 -2 -1 -0 1 2 3 5 8 10 12 13 13 13 14 14 13 12 12 11 11 10 10 9 9
-12 -14 -14 -16 -16 -12 -12 -11 -10 -9 -8 -7 -6 -6 -5 -4 -3 -3 -2 -1 -1 -1 -0 1 2 2 4 7 8 10 10 11 13 13 12 11 10 10 9 9 8 8 8
-13 -16 -16 -18 -21 -18 -15 -14 -11 -11 -10 -8 -7 -7 -6 -6 -5 -4 -3 -2 -1 -1 -1 0 2 4 5 6 6 8 10 10 10 11 11 10 9 8 8 7 7 7 7
-14 -16 -20 -21 -22 -22 -21 -17 -16 -14 -14 -12 -10 -9 -9 -9 -7 -5 -4 -3 -3 -2 -1 -0 1 2 5 6 8 9 10 10 9 9 9 8 6 6 6 6 6 5 5

GFSGL_sfc_dewp_021.txt.gz
Dewpoint
18 19 20 18 18 18 18 18 20 19 20 20 20 20 19 19 19 20 20 20 19 20 20 20 21 24 25 27 27 29 29 30 28 29 29 25 24 25 25 30 32 32 32
17 16 17 16 16 16 16 18 20 19 20 20 20 19 18 18 18 18 17 17 17 17 19 20 20 20 23 24 26 26 27 27 28 26 27 28 24 25 26 26 29 30 30
17 16 16 16 16 17 18 20 20 20 21 20 20 19 17 17 17 17 16 16 15 17 18 19 20 20 21 22 23 24 24 26 27 27 25 27 27 26 26 27 27 29 28
16 16 16 16 17 17 19 19 19 19 17 15 14 13 13 14 13 14 14 16 17 17 18 18 18 17 19 20 22 23 24 24 24 25 25 25 26 26 26 25 26 28 26
15 16 17 17 17 18 18 18 17 14 12 12 11 11 11 11 8 13 13 15 15 14 15 15 16 17 20 21 19 20 22 23 24 24 23 23 24 23 24 25 25 25 26
16 17 15 18 19 18 17 14 11 11 11 10 10 9 9 6 14 16 15 13 13 12 12 12 13 15 16 19 21 22 21 21 22 24 24 23 22 23 25 25 25 25 23
17 15 16 16 15 14 12 10 9 8 8 7 7 6 6 5 13 15 15 10 10 9 8 8 8 7 11 9 14 17 18 20 22 21 24 25 24 25 25 24 24 25 25
15 13 14 13 11 10 9 8 7 6 6 5 5 5 4 4 12 14 14 9 9 7 6 6 6 6 7 9 9 11 12 13 14 14 17 22 24 25 27 27 26 26 25
14 15 12 10 8 7 4 5 5 5 4 3 5 4 3 3 10 13 12 9 9 8 5 5 5 6 11 14 12 14 15 15 17 19 19 21 23 27 30 26 28 26 24
13 12 10 10 4 3 5 4 4 2 4 3 3 2 2 0 7 11 11 9 8 7 8 5 11 9 14 16 14 13 11 11 11 14 16 18 18 19 25 29 28 28 26
9 8 8 7 3 2 1 2 0 -0 1 -1 -1 -1 -1 0 2 10 12 9 9 9 9 9 9 13 14 15 16 13 13 13 15 15 12 12 16 20 20 23 25 27 29
6 6 4 -3 -2 0 -9 -5 -5 -5 -5 -5 -5 -4 -2 -0 5 8 12 13 14 11 11 9 9 15 17 18 18 20 22 22 19 16 13 13 13 19 20 21 25 26 27
1 -1 -7 -5 -3 -2 -9 -5 -5 -7 -6 -5 -3 -4 -3 -1 0 9 13 14 14 11 11 12 16 17 17 15 15 16 14 11 9 6 5 4 5 10 16 21 26 27 27
-4 -3 -4 -6 -6 -6 -2 -2 -4 -5 -5 -4 -3 -3 0 4 6 6 7 10 16 17 17 16 18 20 20 17 14 15 13 13 13 12 11 8 7 9 12 15 24 26 26
-5 -3 -5 -7 -8 -5 -4 -3 -2 -1 1 2 5 8 7 6 7 14 15 14 15 16 18 15 9 8 7 8 10 12 10 10 9 8 8 8 9 10 10 11 24 26 25
-4 -4 -5 -5 -5 -4 -4 -5 3 8 10 12 13 11 10 13 14 16 16 17 18 17 11 3 1 3 4 4 4 7 11 12 10 11 10 10 10 11 13 16 25 26 24
-9 -8 -7 -5 -6 -7 -7 -7 -9 -4 6 7 7 10 11 12 13 14 16 15 14 10 -2 -2 -0 1 1 2 4 6 7 11 14 13 12 13 14 16 17 19 19 26 25
-15 -10 -12 -10 -11 -11 -10 -9 -8 -8 -9 -7 -0 5 8 10 12 12 12 7 -5 -3 -3 -3 -3 -1 0 2 3 7 12 11 11 11 13 15 16 19 23 20 23 25 25
-15 -12 -13 -13 -13 -11 -9 -8 -8 -8 -8 -8 -7 -2 -0 7 10 8 7 -7 -5 -6 -5 -4 -3 -2 -1 1 3 6 9 12 11 12 13 15 18 20 23 23 23 22 24
-18 -13 -12 -15 -14 -15 -11 -12 -10 -9 -9 -10 -9 -8 -6 0 -7 -7 -6 -5 -5 -5 -4 -3 -3 -2 -1 0 2 5 7 10 14 14 16 17 19 20 22 24 24 22 22
-18 -21 -14 -18 -21 -20 -17 -14 -11 -9 -11 -12 -10 -6 8 -2 -8 -8 -7 -6 -4 -4 -3 -2 -1 -1 -0 1 3 4 6 7 10 12 15 19 22 22 21 21 22 22 22
-19 -19 -25 -23 -19 -17 -18 -14 -10 -11 -13 -12 -11 -8 4 -8 -9 -9 -8 -7 -6 -3 -1 -1 -1 0 2 3 4 5 5 6 8 9 11 12 13 16 17 17 18 20 18
-18 -20 -22 -22 -20 -18 -17 -15 -13 -15 -16 -15 -13 -12 -12 -12 -12 -12 -11 -10 -9 -6 -4 -2 -1 -0 2 4 8 8 6 6 8 9 9 9 9 9 9 10 11 11 13
-21 -21 -19 -20 -20 -18 -15 -14 -14 -15 -16 -17 -20 -19 -15 -14 -15 -14 -13 -12 -11 -9 -7 -5 -3 -1 0 2 7 10 9 10 9 8 9 9 8 9 10 10 10 10 11
-25 -21 -19 -19 -22 -16 -15 -15 -17 -22 -22 -20 -20 -22 -19 -18 -16 -16 -15 -14 -13 -12 -11 -7 -4 -3 -1 0 4 9 11 11 8 9 8 7 7 7 8 8 9 10 10
-13 -16 -18 -19 -18 -15 -15 -17 -19 -20 -21 -21 -21 -22 -21 -19 -17 -17 -16 -15 -14 -14 -13 -10 -8 -7 -5 -1 2 11 11 14 9 9 8 7 6 6 6 6 6 7 7

GFSGL_sfc_dewp_024.txt.gz
Dewpoint
19 19 17 17 17 16 16 17 17 18 19 19 19 19 18 18 18 17 17 16 17 17 17 18 19 21 20 22 22 23 24 25 24 22 23 25 27 27 28 28 29 30 30
16 17 17 16 16 16 16 17 18 18 19 19 19 18 18 17 17 17 16 16 17 15 16 17 16 17 19 20 21 21 21 23 23 21 22 22 23 26 27 26 26 27 29
17 16 16 16 16 16 17 18 19 19 18 18 15 14 13 14 13 14 15 16 16 16 17 17 17 17 18 18 18 19 20 20 22 22 22 23 23 24 26 26 26 27 28
17 16 16 16 16 16 17 17 17 16 13 12 12 12 12 11 9 11 12 13 13 14 15 15 15 15 16 16 17 18 19 21 22 22 21 22 22 23 25 25 25 26 26
16 16 17 18 16 17 16 15 13 13 11 11 9 9 8 7 3 11 12 13 13 12 12 11 12 13 16 16 14 16 17 19 20 20 17 18 20 22 22 24 24 24 26
16 17 16 17 18 17 15 13 12 11 10 9 8 8 7 2 12 16 16 13 12 9 8 8 8 10 11 14 16 17 16 16 17 20 20 20 21 21 22 23 24 23 22
18 16 16 16 15 13 11 10 9 8 8 7 6 6 5 5 13 16 16 11 10 9 8 6 5 4 8 6 10 14 14 15 16 13 14 14 14 17 22 25 27 25 24
16 14 14 13 11 11 9 8 7 6 6 5 4 4 5 4 12 14 15 10 9 8 7 6 5 5 5 7 8 11 12 12 13 12 13 12 13 14 15 15 20 25 28
14 14 12 10 8 7 4 5 5 5 4 3 5 4 3 3 10 13 12 10 9 9 7 6 5 5 10 14 13 15 15 14 15 16 17 18 18 19 19 21 20 20 19
13 13 10 9 4 3 5 3 4 1 3 3 3 2 2 0 8 12 12 10 9 9 8 6 12 10 15 16 14 14 13 12 12 12 12 14 15 13 16 13 15 16 18
11 8 7 7 3 2 1 1 -2 -3 0 -3 -1 -1 -1 0 1 10 13 11 11 11 12 11 10 14 16 17 18 15 14 15 17 15 14 14 14 15 14 13 14 15 15
7 6 5 0 1 0 -9 -8 -8 -9 -8 -7 -6 -4 -1 1 5 9 13 15 15 12 12 12 12 17 21 23 21 21 20 18 16 13 11 10 10 10 9 11 12 14 19
2 2 -1 -0 0 0 -6 -4 -7 -11 -10 -6 -3 -3 -2 1 2 11 13 14 15 13 15 16 16 16 18 20 18 16 15 14 16 15 13 12 10 9 9 8 9 10 11
-5 -1 0 -1 -2 -2 -1 -1 -9 -10 -6 -5 -4 -3 -1 3 7 6 9 14 17 14 16 16 17 14 12 11 8 9 9 9 11 12 11 11 12 14 15 13 9 8 8
-4 -1 -1 -1 -2 -2 -3 -4 -3 -2 -1 -3 -1 3 7 6 7 13 15 14 15 17 15 7 2 0 1 2 3 4 5 5 6 9 9 9 10 9 9 10 10 10 9
-2 -1 -2 -2 -3 -3 -4 -5 3 8 11 12 13 12 11 12 13 14 15 16 16 14 5 -4 -4 -3 -2 -1 -0 1 2 4 6 8 9 10 9 9 10 10 12 11 10
-7 -1 -3 -4 -5 -5 -7 -7 -9 -5 5 7 8 9 10 12 12 13 14 14 10 7 -11 -7 -6 -5 -4 -3 -2 -0 0 2 7 9 11 11 11 12 12 12 13 14 13
-7 -4 -6 -6 -8 -10 -10 -10 -10 -11 -11 -9 -2 4 7 9 11 12 11 6 -7 -6 -17 -8 -7 -5 -4 -3 -2 -2 0 2 4 7 12 11 11 12 12 13 15 19 16
-8 -7 -8 -9 -10 -11 -10 -9 -10 -11 -11 -11 -10 -5 -1 5 8 6 6 -16 -10 -8 -7 -6 -5 -4 -3 -2 -2 -0 1 2 5 7 9 12 12 13 13 15 18 20 22
-11 -7 -8 -14 -15 -15 -12 -12 -11 -12 -13 -13 -12 -10 -8 -7 -15 -15 -16 -18 -13 -8 -6 -6 -4 -3 -2 -2 -1 0 2 3 4 5 6 8 11 15 16 18 19 20 22
-14 -15 -13 -18 -19 -18 -18 -17 -13 -15 -14 -15 -11 -7 6 -2 -13 -12 -12 -14 -13 -10 -8 -6 -5 -3 -2 -1 -0 0 2 4 5 5 6 7 8 9 12 16 19 21 20
-17 -18 -23 -21 -19 -18 -19 -16 -15 -16 -15 -13 -10 -9 1 -11 -12 -13 -13 -14 -13 -12 -9 -7 -6 -4 -2 -1 0 1 2 5 5 5 5 6 7 9 10 12 14 15 15
-15 -15 -15 -19 -20 -19 -20 -21 -19 -18 -16 -13 -13 -13 -14 -17 -17 -17 -16 -15 -14 -13 -12 -11 -9 -7 -4 -1 -0 2 3 6 8 7 5 5 6 8 9 10 11 11 11
-16 -16 -14 -16 -22 -21 -19 -19 -17 -15 -13 -13 -17 -19 -17 -17 -21 -20 -18 -16 -15 -14 -13 -13 -11 -10 -7 -6 -3 -0 3 6 11 7 7 6 6 7 7 8 9 10 12
-26 -21 -19 -19 -20 -17 -17 -17 -14 -14 -15 -16 -18 -21 -20 -21 -21 -22 -20 -19 -17 -16 -15 -14 -12 -11 -11 -10 -8 -6 -0 7 8 7 6 6 6 6 6 7 7 9 9
-14 -13 -12 -13 -15 -16 -15 -13 -12 -12 -14 -17 -19 -20 -22 -22 -21 -20 -19 -19 -18 -17 -17 -14 -13 -14 -12 -10 -8 -1 3 12 10 6 4 5 5 5 6 5 5 6 6

GFSGL_sfc_dewp_027.txt.gz
Dewpoint
19 18 18 17 16 16 16 16 16 17 17 16 16 15 15 14 14 15 15 15 15 16 16 15 16 17 17 17 18 18 19 19 20 19 19 21 22 23 23 27 29 28 29
19 17 16 16 16 15 15 16 17 16 17 16 14 13 12 12 13 13 13 15 16 15 15 15 15 14 16 16 17 16 17 18 19 19 19 20 21 23 24 25 24 24 26
17 17 16 16 16 16 16 17 17 15 14 13 11 10 10 10 10 11 12 12 13 13 14 13 13 14 15 16 14 15 16 16 18 19 18 21 22 23 22 23 24 26 26
17 16 17 17 16 16 17 17 14 13 11 10 10 9 8 7 6 8 11 13 13 13 13 12 11 10 11 12 13 15 15 17 17 17 17 17 18 19 21 22 22 24 24
17 16 16 18 17 17 17 15 13 12 9 8 7 7 6 4 2 12 13 14 13 11 10 9 9 11 14 14 13 15 15 16 16 16 14 15 16 18 19 22 23 24 25
17 17 17 19 19 18 16 14 11 10 9 8 7 6 6 2 12 17 16 13 12 9 9 8 7 9 8 13 14 15 15 15 15 16 14 13 12 12 14 16 17 19 19
19 19 19 19 18 16 13 11 9 7 6 6 5 5 5 5 12 16 16 12 11 9 7 6 5 4 7 4 9 13 13 14 15 13 14 12 11 9 9 11 11 12 13
19 18 17 16 14 11 9 7 6 5 5 4 4 5 4 3 12 15 15 11 9 8 7 7 6 5 6 8 9 13 13 12 12 11 13 13 14 15 15 15 17 18 18
17 17 15 14 11 9 7 5 5 5 4 5 6 5 4 4 10 14 14 12 10 9 8 7 6 7 12 16 17 18 17 15 16 18 18 19 19 19 17 17 17 16 14
17 16 13 11 7 5 6 5 5 3 4 3 4 3 3 2 8 12 13 12 12 11 11 8 14 12 16 17 16 17 15 15 15 16 15 16 17 16 18 16 16 15 14
15 13 10 8 6 5 3 3 2 0 1 -1 -0 0 1 1 3 11 14 13 13 14 15 13 12 16 17 17 19 19 20 22 23 22 20 20 20 20 19 17 15 15 14
10 8 6 3 5 3 -2 -2 -3 -3 -3 -3 -3 -2 0 2 6 11 14 15 15 15 15 13 14 19 23 22 18 18 17 17 15 14 13 14 15 15 14 14 16 17 16
6 3 0 0 1 1 -4 -2 -1 -3 -4 -3 -2 -1 -1 2 4 11 13 14 16 15 15 14 20 17 16 12 13 15 13 10 10 10 9 10 11 12 14 17 17 15 14
1 1 0 -1 0 -1 1 0 -1 -3 -2 -2 -3 -2 -0 2 4 9 9 13 18 16 18 13 11 9 9 8 5 6 6 7 7 7 7 8 10 11 12 13 13 14 14
0 1 1 -1 -1 -0 -0 -0 -0 0 -0 -5 -3 -0 2 4 9 13 15 15 17 17 10 2 -1 -1 -1 -0 1 2 3 4 4 5 6 8 9 10 11 12 12 13 12
0 -1 -1 -1 -2 -2 -2 -2 3 8 10 12 14 13 13 14 13 14 15 17 17 13 1 -5 -5 -4 -4 -2 -2 -1 0 1 2 4 5 7 8 10 11 12 13 13 12
-2 -1 -1 -1 -3 -3 -4 -4 -5 -4 4 7 9 11 11 11 13 12 15 14 11 6 -6 -6 -6 -5 -4 -3 -2 -1 -1 0 2 3 4 6 8 11 12 12 12 12 13
-10 -4 -4 -4 -5 -6 -6 -6 -6 -7 -10 -8 -3 3 7 10 10 12 12 7 -6 -6 -9 -8 -6 -5 -3 -2 -2 -1 -0 0 2 3 5 6 7 9 10 12 12 13 14
-9 -8 -7 -8 -8 -8 -7 -7 -7 -9 -10 -10 -9 -4 -1 4 8 7 4 -8 -11 -10 -8 -7 -5 -5 -3 -2 -1 -1 -0 1 2 3 5 6 7 8 8 10 12 14 16
-14 -8 -9 -11 -11 -10 -9 -10 -10 -10 -11 -11 -11 -10 -10 -9 -7 -8 -12 -13 -13 -11 -9 -9 -7 -5 -4 -3 -2 -1 0 1 2 4 6 6 6 7 7 9 10 12 14
-15 -15 -10 -13 -13 -15 -14 -11 -10 -12 -12 -12 -12 -8 4 2 -6 -10 -12 -12 -13 -12 -11 -10 -9 -8 -6 -4 -3 -1 -1 -0 2 3 6 7 6 6 7 9 10 12 14
-20 -19 -18 -16 -14 -14 -14 -12 -13 -14 -13 -13 -11 -9 3 -6 -9 -11 -12 -12 -13 -13 -12 -12 -11 -10 -8 -7 -4 -3 -3 -1 1 3 6 6 5 6 7 8 9 11 13
-16 -14 -17 -18 -16 -15 -15 -15 -15 -16 -15 -15 -14 -12 -12 -12 -13 -14 -14 -15 -15 -14 -13 -13 -12 -12 -9 -8 -6 -5 -3 -3 2 3 6 5 5 5 6 7 8 9 11
-19 -20 -19 -18 -17 -14 -13 -13 -14 -15 -15 -15 -16 -15 -14 -13 -15 -17 -17 -16 -16 -16 -15 -14 -13 -13 -12 -11 -8 -7 -6 -4 1 5 8 5 4 5 6 6 7 8 10
-27 -23 -20 -18 -21 -18 -18 -14 -13 -14 -14 -13 -12 -13 -14 -16 -17 -19 -19 -19 -19 -17 -16 -15 -14 -13 -13 -13 -12 -11 -8 -4 2 9 6 5 4 3 4 5 5 7 7
-24 -23 -19 -14 -12 -12 -14 -13 -12 -11 -10 -10 -11 -12 -15 -17 -18 -19 -20 -21 -19 -18 -18 -17 -15 -16 -15 -12 -11 -5 -1 5 11 7 3 3 2 3 4 3 3 5 5

GFSGL_sfc_dewp_030.txt.gz
Dewpoint
17 16 17 17 15 15 15 16 16 15 14 14 13 13 12 12 13 13 14 14 16 17 16 15 16 17 15 15 16 16 17 17 18 19 17 18 20 21 22 24 26 24 26
17 17 16 16 16 16 15 15 17 15 14 13 11 11 10 10 11 11 12 14 14 13 14 14 13 11 15 14 14 14 14 15 15 17 17 17 18 20 21 22 20 19 22
16 16 15 16 16 16 16 16 15 14 12 11 10 9 9 10 9 10 11 12 13 14 14 13 13 13 13 13 11 11 13 12 14 15 16 15 16 17 18 19 19 21 20
17 16 16 16 16 16 16 16 15 13 11 10 10 8 8 7 6 6 11 13 14 14 14 13 11 10 11 11 12 13 13 15 15 14 14 14 12 13 15 17 18 21 21
15 15 15 18 17 18 18 18 15 13 10 9 8 8 6 5 1 12 13 15 15 12 11 10 9 11 14 14 12 13 13 15 14 14 12 12 11 11 10 12 13 15 17
15 16 14 19 21 22 21 17 14 13 11 10 10 8 7 2 8 16 17 15 13 11 9 7 7 10 9 13 14 15 14 16 16 17 12 10 10 11 12 12 11 12 11
24 25 25 24 23 21 19 15 12 11 9 8 7 7 7 7 10 16 17 14 13 11 8 7 6 5 9 5 10 14 13 15 16 14 15 12 11 9 9 10 11 12 13
25 26 24 23 23 20 16 13 11 9 9 8 7 7 6 5 11 14 16 13 12 10 8 8 7 7 7 9 10 13 12 14 15 12 13 13 13 15 16 16 18 19 20
22 23 23 22 22 18 15 12 10 10 10 11 11 11 10 9 10 13 14 14 13 12 10 9 9 9 13 17 16 18 18 17 16 18 19 20 21 22 21 22 22 20 18
20 20 21 22 20 17 14 13 13 12 10 8 10 9 8 7 8 12 14 14 15 13 13 11 16 14 16 18 17 19 18 19 22 23 23 23 23 21 21 18 19 17 16
23 21 20 18 17 15 13 12 11 10 7 8 7 8 7 6 7 12 14 14 14 14 14 13 11 16 18 21 22 20 18 17 19 18 17 16 15 16 17 18 20 18 17
20 19 17 15 13 12 10 10 8 8 6 7 7 7 6 6 8 11 14 15 15 16 15 13 14 20 18 17 16 16 16 16 15 14 14 13 13 13 13 14 15 17 19
17 16 13 11 12 11 8 7 7 7 6 7 5 6 5 4 7 11 13 15 15 15 14 15 19 15 13 10 12 13 11 8 9 10 9 8 8 9 9 12 14 16 16
15 12 10 8 8 7 7 7 8 8 7 7 7 7 7 8 8 9 12 15 18 16 18 13 11 9 9 8 5 5 4 5 5 5 6 6 7 9 11 11 13 14 14
14 11 11 9 7 8 6 7 6 7 7 8 8 9 11 10 11 12 15 15 18 19 14 10 6 4 3 3 3 3 4 4 4 5 5 6 7 8 9 11 13 15 14
12 10 10 8 7 5 5 4 9 11 12 14 15 15 14 15 15 13 14 15 16 14 10 5 2 2 1 1 2 2 3 3 3 4 4 5 6 7 8 10 12 14 13
14 11 8 6 5 4 3 3 4 4 8 10 12 12 12 13 12 12 13 14 13 8 4 1 1 1 1 1 2 2 2 3 4 4 5 6 7 8 8 9 10 11 13
8 5 8 6 5 4 4 3 2 1 1 2 2 5 7 10 11 10 12 11 5 1 -0 -1 -1 -0 0 1 1 1 2 3 3 4 5 6 7 8 8 8 9 9 11
3 3 3 3 2 1 0 -1 -1 -1 -1 -1 -1 1 2 3 6 9 8 3 -1 -3 -2 -2 -1 -1 -1 -0 0 1 2 2 3 4 5 6 8 9 8 7 8 8 9
-1 -3 -2 0 -0 -1 -2 -3 -4 -3 -3 -3 -3 -2 -1 -3 -1 2 1 -2 -3 -4 -3 -4 -3 -3 -2 -2 -1 0 1 1 2 4 5 6 7 9 8 7 8 8 9
-1 -2 -4 -2 -2 -2 -3 -5 -6 -4 -4 -4 -4 -3 3 1 2 2 0 -3 -3 -4 -5 -5 -5 -4 -4 -3 -3 -2 -1 -0 1 3 4 6 6 7 8 8 8 9 10
-5 -5 -5 -5 -5 -4 -5 -6 -7 -6 -6 -6 -7 -5 3 0 0 -2 -4 -4 -4 -5 -6 -6 -6 -5 -5 -5 -4 -3 -3 -2 -0 2 3 3 5 8 8 7 7 8 9
-8 -7 -6 -7 -7 -9 -9 -8 -7 -7 -8 -7 -8 -8 -7 -6 -6 -6 -5 -6 -7 -8 -8 -8 -8 -7 -6 -5 -4 -3 -4 -3 -1 0 -0 2 6 7 7 7 7 7 8
-6 -6 -7 -6 -7 -8 -7 -7 -7 -9 -9 -9 -8 -8 -9 -7 -6 -6 -8 -9 -10 -10 -9 -9 -9 -9 -9 -8 -6 -4 -3 -3 -1 -1 0 4 7 6 6 6 6 6 8
-7 -7 -8 -9 -8 -8 -8 -8 -8 -8 -7 -6 -6 -6 -5 -6 -7 -8 -9 -11 -12 -12 -12 -11 -10 -10 -10 -10 -10 -10 -8 -5 -4 0 6 8 6 5 5 6 5 6 6
-7 -8 -8 -8 -8 -7 -7 -7 -7 -7 -7 -6 -5 -5 -5 -6 -8 -10 -11 -12 -13 -13 -12 -11 -12 -13 -12 -11 -10 -6 -5 1 4 8 9 8 6 6 6 5 4 5 4

GFSGL_sfc_dewp_033.txt.gz
Dewpoint
17 16 19 19 16 16 19 19 19 19 17 17 17 16 16 14 16 16 17 17 18 19 19 18 18 19 16 16 18 17 17 17 17 16 17 18 19 19 19 21 21 20 22
17 16 20 17 18 18 17 18 21 18 18 16 15 14 13 12 13 13 13 16 16 15 16 16 15 12 16 15 15 14 14 15 15 14 15 16 16 17 17 18 17 17 19
17 18 18 18 18 19 19 19 19 18 16 13 13 12 11 12 11 11 12 13 15 16 16 15 14 14 15 15 12 12 13 12 15 15 14 15 15 15 14 14 15 16 16
18 19 19 19 19 19 19 19 18 17 15 13 12 11 10 10 8 9 9 13 15 16 16 15 14 12 13 13 12 14 14 15 15 14 13 13 12 13 14 13 12 14 14
18 18 18 21 19 20 21 21 20 18 14 13 11 10 9 7 5 6 12 15 16 14 14 12 12 13 14 15 13 15 15 15 15 14 12 11 11 10 10 12 12 13 13
19 18 17 20 22 25 24 22 19 17 15 13 12 11 10 5 6 13 17 16 15 12 11 11 9 13 10 13 15 16 15 15 14 15 13 10 11 11 11 11 11 11 10
23 25 25 25 24 24 24 21 18 16 15 13 12 10 10 9 11 15 18 16 14 13 11 9 7 6 11 7 11 14 15 16 17 14 15 14 12 11 11 11 12 13 13
26 27 26 25 24 24 22 20 17 16 14 13 11 10 9 8 12 15 17 15 14 12 11 10 9 9 9 11 12 15 16 17 17 15 15 15 15 16 16 16 17 19 20
25 26 25 24 24 23 21 19 17 17 15 16 15 15 15 14 14 15 15 15 15 14 13 12 11 11 15 18 16 17 17 17 20 25 25 24 23 24 22 21 20 17 15
24 25 25 25 24 23 21 19 19 18 18 15 16 15 14 13 13 15 15 15 16 15 16 12 17 15 17 18 18 21 18 15 15 17 18 17 17 16 18 16 16 15 16
25 24 24 24 23 22 21 20 19 17 14 14 13 14 13 12 11 14 16 15 16 16 16 16 14 16 17 20 18 15 14 15 16 14 12 12 13 14 14 15 15 15 15
24 23 22 21 21 21 18 17 16 15 13 12 12 12 11 11 11 12 16 17 17 16 16 15 15 17 19 17 15 15 15 14 9 9 9 9 9 9 10 11 11 12 13
21 20 19 18 19 18 16 15 12 13 12 12 11 11 11 10 9 13 16 17 16 16 16 16 19 16 15 12 12 13 11 8 7 6 5 6 6 7 8 9 11 13 13
19 18 17 15 16 14 14 14 14 13 12 12 12 12 12 11 10 11 13 14 16 17 18 17 13 12 10 9 7 6 6 7 6 5 6 5 6 6 7 8 9 10 10
19 17 17 15 14 13 12 13 12 13 14 14 14 14 12 12 14 14 15 17 17 17 20 13 9 7 5 5 5 5 6 6 5 6 5 4 5 6 6 7 8 8 8
18 17 16 15 13 13 12 10 14 14 13 14 14 13 15 16 17 17 18 16 16 17 12 7 6 4 3 3 3 4 4 4 5 5 4 5 5 5 5 6 7 7 7
19 18 16 13 13 11 10 10 10 11 14 16 16 17 16 16 16 15 15 15 15 9 6 5 3 3 2 3 3 3 3 3 4 4 4 4 4 4 5 5 6 6 6
16 10 15 12 12 11 10 10 9 8 8 8 10 10 11 12 12 13 14 13 11 6 2 1 0 1 2 2 2 2 2 2 2 2 2 2 3 4 4 4 6 5 5
10 9 8 9 8 6 6 5 5 4 4 4 4 4 7 9 10 11 12 9 4 1 -0 -0 -0 -0 0 -0 -0 0 -0 0 1 0 1 2 3 3 3 4 5 5 5
3 2 3 4 4 2 2 1 1 1 1 1 1 1 3 -1 -0 2 5 4 1 -1 -1 -2 -2 -2 -2 -2 -2 -2 -2 -2 -1 -1 -0 1 2 4 3 3 5 5 5
3 1 -1 0 1 1 1 -0 -1 -0 -1 -1 -1 1 5 0 -0 2 3 4 2 -1 -2 -3 -4 -3 -4 -4 -5 -4 -4 -3 -3 -3 -1 -0 1 1 2 5 6 5 5
-0 -1 -1 -2 -2 -2 -2 -2 -2 -3 -3 -4 -3 -2 4 2 3 4 4 3 0 -1 -4 -6 -6 -5 -5 -5 -6 -6 -6 -6 -5 -4 -3 -2 -2 -0 1 5 4 4 4
-3 -4 -4 -4 -4 -5 -6 -5 -5 -5 -5 -5 -5 -5 -5 -4 -3 -2 -2 -1 -1 -3 -6 -7 -7 -7 -7 -7 -6 -5 -6 -7 -6 -3 -4 -5 -4 -2 3 4 3 3 3
-4 -4 -4 -4 -4 -4 -5 -5 -5 -7 -7 -7 -7 -6 -6 -4 -2 -2 -1 -1 -2 -5 -8 -9 -8 -10 -10 -11 -9 -8 -7 -6 -5 -4 -4 -4 -5 -1 5 3 3 3 2
-4 -5 -5 -5 -5 -6 -6 -6 -6 -6 -5 -5 -5 -4 -3 -3 -2 -2 -2 -3 -5 -8 -11 -10 -10 -11 -12 -13 -13 -13 -11 -8 -10 -7 -5 -3 0 5 4 3 1 1 1
-4 -5 -5 -5 -5 -6 -6 -6 -6 -6 -6 -6 -5 -4 -3 -3 -3 -3 -3 -5 -8 -10 -13 -11 -11 -13 -14 -13 -14 -10 -9 -4 -5 -2 4 7 7 3 -3 -3 -3 -1 -1

GFSGL_sfc_dewp_036.txt.gz
Dewpoint
19 19 20 20 19 19 20 20 19 19 19 18 18 18 17 16 16 15 15 16 16 17 17 17 17 17 16 16 17 17 17 16 15 13 14 15 16 16 17 17 18 15 16
19 20 20 19 19 19 19 19 20 18 19 17 17 16 15 14 15 14 14 15 15 15 16 16 16 14 16 15 15 14 14 14 14 13 13 14 15 16 15 15 13 13 15
19 20 20 19 19 19 19 19 20 19 17 16 15 14 14 13 12 12 13 14 15 16 17 16 16 15 16 15 13 13 14 12 15 14 13 14 14 14 13 13 13 13 12
19 20 20 19 19 19 20 20 19 18 16 15 14 13 13 12 10 10 10 13 15 16 17 17 16 14 14 14 13 14 14 15 15 14 13 12 12 12 12 11 11 12 12
19 20 20 21 20 20 21 20 19 18 16 15 14 12 11 10 7 9 13 15 17 16 16 15 14 15 16 15 14 16 16 15 14 13 12 12 11 10 10 12 11 12 12
19 19 20 21 21 23 22 21 19 18 16 15 13 14 12 7 10 11 15 18 17 15 14 13 12 15 12 14 15 17 16 15 12 13 13 13 13 12 12 12 11 11 10
22 23 22 22 22 23 22 21 19 17 16 15 14 13 12 12 14 15 17 17 16 15 14 13 11 9 14 10 12 15 16 18 19 16 15 14 13 12 12 13 13 14 14
23 23 22 22 22 22 21 20 18 17 16 15 14 13 12 11 16 17 17 16 16 15 14 13 12 11 11 12 13 14 16 17 17 16 19 22 22 22 22 21 21 21 20
23 23 22 23 22 22 20 19 17 16 15 14 15 13 13 13 16 17 16 17 15 15 14 14 13 12 15 18 17 17 17 20 19 18 19 20 20 20 18 15 15 15 13
24 24 23 22 22 21 20 18 17 15 15 15 16 13 13 10 17 18 17 16 11 15 16 14 18 16 19 19 18 20 16 13 13 15 14 12 13 13 16 13 14 13 13
24 23 22 22 22 21 20 17 16 14 16 13 13 11 10 11 11 17 18 16 15 14 15 15 16 18 18 19 21 18 13 15 12 7 8 8 8 9 9 10 11 11 10
22 21 20 20 22 21 19 13 14 13 10 8 5 7 11 12 14 15 17 18 18 15 14 15 16 18 18 21 18 16 16 14 3 3 5 5 5 6 7 7 8 9 10
19 17 16 17 18 16 15 13 10 9 10 8 9 8 9 11 11 16 18 18 19 17 16 16 18 20 18 14 13 13 12 5 2 -2 3 4 5 5 6 7 8 9 10
16 16 15 15 12 11 13 13 11 10 9 9 9 9 6 10 10 10 11 11 16 15 16 15 15 17 15 11 8 7 7 7 6 5 5 5 5 5 5 6 6 6 7
15 14 13 11 12 10 10 9 11 8 10 5 5 6 6 6 8 12 11 8 10 13 14 9 4 2 1 3 1 2 5 5 4 5 5 3 3 5 4 5 5 5 4
13 13 13 13 10 10 9 6 15 15 16 17 17 11 5 13 15 17 18 19 20 24 12 -6 -5 -2 1 0 -1 0 2 3 3 4 3 3 3 3 3 3 5 4 4
13 13 13 12 11 9 8 8 4 10 17 18 18 18 19 19 22 20 20 20 21 19 -2 -8 -5 -3 -1 -0 -2 -1 1 3 1 1 2 1 1 1 2 2 3 3 3
7 11 10 8 8 6 6 6 5 3 2 4 11 13 14 15 16 16 16 16 15 13 -11 -7 -3 -5 -2 -5 -4 -4 -1 -0 -1 -1 -1 -2 -2 0 -0 -0 2 1 2
6 4 6 6 4 5 6 4 4 2 1 -0 -1 4 8 10 12 13 15 12 9 4 -2 -3 -1 -4 -4 -5 -10 -11 -5 -4 -4 -6 -4 -3 -2 -1 -1 -0 1 0 2
1 5 4 4 2 2 3 1 1 0 -2 -2 -2 -1 -4 -8 -12 -13 -7 -5 -9 -5 -4 -3 -3 -4 -8 -8 -14 -13 -8 -12 -11 -14 -10 -6 -4 -2 -1 -2 -1 -0 2
-0 -0 1 1 0 1 -0 -2 -2 -2 -2 -5 -5 -2 6 -1 -4 -9 -9 -8 -5 -8 -6 -5 -5 -6 -8 -10 -17 -13 -11 -9 -13 -17 -15 -7 -5 -4 -4 -2 -2 1 3
1 -1 -2 -3 -6 -5 -6 -2 -2 -6 -9 -11 -10 -7 4 -3 -9 -5 -1 -1 -3 -5 -3 -4 -8 -9 -8 -12 -14 -12 -13 -13 -17 -19 -15 -7 -6 -7 -6 -4 -3 2 1
-4 -6 -9 -11 -7 -5 -9 -13 -12 -13 -15 -17 -14 -11 -15 -15 -14 -13 -11 -11 -9 -5 -6 -5 -6 -7 -8 -11 -12 -10 -12 -11 -15 -21 -12 -8 -9 -8 -7 -5 -2 1 0
-12 -10 -8 -9 -10 -12 -14 -15 -15 -15 -17 -17 -20 -19 -13 -15 -16 -10 -5 -2 -4 -8 -4 -5 -6 -7 -9 -12 -14 -16 -17 -12 -19 -12 -16 -8 -8 -8 -8 -4 2 1 -0
-13 -13 -13 -14 -17 -17 -17 -18 -17 -20 -20 -17 -17 -16 -15 -13 -10 -9 -5 -3 -5 -5 -5 -6 -7 -9 -11 -13 -14 -19 -18 -8 -12 -14 -16 -11 -10 -10 -7 -0 1 -2 -5
-15 -16 -17 -18 -18 -20 -21 -19 -19 -18 -18 -17 -16 -14 -14 -12 -11 -8 -6 -5 -5 -6 -7 -8 -10 -12 -13 -13 -15 -13 -12 -7 -10 -9 -11 -8 -6 -0 3 0 -2 -8 -8

GFSGL_sfc_dewp_042.txt.gz
Dewpoint
23 22 21 21 20 20 19 19 18 19 18 17 18 18 19 19 19 18 17 18 16 17 17 16 16 16 15 15 16 15 15 15 14 12 13 13 14 14 14 15 15 14 14
22 20 21 20 20 20 19 18 19 18 19 18 18 18 17 18 18 15 16 16 16 15 15 15 15 14 14 14 14 13 13 14 13 11 11 12 13 14 14 14 13 12 13
20 20 20 20 19 19 18 18 19 18 18 18 18 17 16 16 16 15 16 15 15 15 16 15 15 16 15 15 13 13 13 11 13 14 13 13 14 14 14 14 13 14 13
19 19 19 19 19 19 19 18 18 18 18 18 17 16 16 15 14 14 14 14 15 16 17 17 16 16 15 14 14 14 14 16 16 14 14 13 13 14 14 13 12 14 13
19 19 19 20 19 20 20 19 19 19 17 17 16 16 15 13 11 12 11 14 14 15 16 16 16 16 17 17 15 16 16 15 16 15 14 14 13 14 13 14 14 14 15
19 19 19 20 20 21 21 21 20 19 18 17 16 15 14 9 16 20 13 14 16 14 15 15 15 17 16 18 19 18 18 14 0 5 14 15 15 13 16 13 14 15 9
21 23 22 22 21 22 22 21 20 19 17 16 16 14 13 12 19 22 21 15 16 16 15 14 13 13 16 12 14 17 18 18 19 17 17 16 16 17 15 17 12 11 11
23 24 23 22 22 22 22 21 20 19 18 17 15 15 14 13 19 22 23 18 18 17 16 15 15 14 13 13 12 14 14 14 15 15 17 20 17 17 17 14 12 11 9
22 23 23 22 23 22 22 21 20 20 20 18 17 16 16 15 21 22 22 20 18 17 15 15 15 14 17 19 17 14 16 17 20 22 21 20 20 19 15 11 5 6 4
22 22 23 24 25 23 23 23 23 23 19 17 18 16 15 14 20 23 23 20 14 17 16 14 19 16 18 20 19 16 15 16 17 11 10 10 10 8 11 8 9 5 5
27 25 24 24 26 25 25 24 20 19 18 17 16 15 13 13 14 22 23 20 17 15 15 15 14 18 19 20 21 19 17 18 14 6 5 7 7 7 7 8 7 6 5
27 25 25 25 25 25 23 20 19 19 18 15 12 9 13 13 16 19 22 23 23 15 14 15 15 19 20 21 21 21 22 21 -1 -5 -4 2 4 5 6 7 6 7 7
25 25 24 23 23 22 21 18 16 16 17 14 14 14 13 13 14 20 21 22 23 21 19 18 20 21 22 22 23 25 18 6 -1 -5 -2 3 5 6 7 6 6 7 7
24 22 21 21 19 18 19 17 17 16 15 15 14 14 9 10 12 12 13 16 20 21 21 19 20 22 22 20 15 17 10 8 6 3 3 5 6 5 4 4 4 3 2
21 18 18 18 17 15 13 15 16 10 16 12 13 11 6 7 10 14 13 10 11 13 14 0 2 8 10 12 9 8 9 8 5 3 1 3 4 3 2 3 2 1 -1
16 16 15 15 12 11 11 7 19 18 20 21 19 12 5 14 15 17 19 20 20 20 17 13 10 9 10 11 12 10 7 6 5 3 -0 -0 2 0 -1 -1 -1 -2 -2
15 12 11 11 10 9 7 10 8 12 20 20 20 21 22 16 19 20 21 22 24 25 22 20 16 12 10 11 9 7 4 5 4 3 2 -0 -1 -3 -4 -6 -4 -3 -4
6 10 10 9 9 7 7 7 5 2 3 4 14 17 18 18 18 18 19 19 10 7 1 0 3 6 8 8 6 5 3 2 1 0 -1 -4 -7 -13 -10 -8 -7 -7 -5
6 5 4 4 4 5 4 2 1 1 -0 -3 4 10 8 11 10 10 9 -8 -12 -13 -12 -9 -7 -4 1 -0 -1 -2 -2 -3 -4 -4 -7 -11 -9 -18 -16 -10 -7 -6 -5
2 5 3 3 3 3 3 2 0 -1 1 2 1 1 -2 -9 -12 -16 -17 -20 -21 -20 -20 -21 -15 -14 -10 -12 -11 -8 -8 -10 -7 -7 -9 -10 -12 -14 -12 -11 -9 -8 -8
-0 -1 0 -2 -3 -3 -3 -3 0 1 -0 -6 -10 -7 5 -11 -12 -16 -19 -20 -22 -22 -18 -19 -18 -17 -11 -11 -9 -10 -10 -7 -6 -6 -10 -13 -15 -19 -20 -9 -8 -9 -9
-5 -7 -6 -7 -5 -3 -0 -0 -2 -6 -12 -12 -12 -11 1 -13 -19 -21 -22 -24 -22 -21 -18 -19 -13 -15 -10 -11 -8 -8 -8 -9 -8 -7 -12 -13 -16 -21 -24 -15 -12 -11 -10
-7 -7 -6 -5 -4 -5 -9 -13 -16 -16 -17 -19 -18 -15 -19 -22 -23 -23 -22 -22 -22 -19 -17 -21 -15 -12 -16 -15 -6 -5 -7 -8 -6 -8 -13 -15 -20 -25 -27 -21 -15 -13 -12
-6 -6 -8 -13 -14 -15 -16 -18 -17 -16 -17 -20 -25 -25 -20 -22 -25 -22 -21 -20 -19 -18 -19 -18 -15 -13 -15 -16 -13 -8 -8 -7 -8 -11 -14 -16 -20 -25 -26 -24 -18 -13 -10
-12 -12 -12 -14 -17 -16 -16 -20 -19 -23 -23 -22 -23 -23 -23 -24 -23 -23 -21 -20 -18 -17 -15 -15 -16 -15 -14 -13 -11 -9 -9 -6 -8 -12 -17 -23 -24 -26 -28 -25 -17 -13 -11
-15 -14 -13 -12 -12 -15 -19 -16 -17 -20 -22 -22 -23 -24 -23 -21 -20 -21 -19 -19 -17 -16 -16 -17 -17 -15 -15 -15 -15 -11 -8 -5 -9 -10 -18 -22 -23 -23 -25 -20 -18 -12 -7

GFSGL_sfc_dewp_045.txt.gz
Dewpoint
27 25 23 21 19 19 18 18 17 16 17 17 17 18 18 18 18 18 18 18 17 17 16 16 16 17 16 15 16 15 15 16 15 12 12 12 13 14 14 15 16 15 15
26 24 22 21 20 18 17 17 18 16 17 17 18 18 18 18 18 16 16 16 16 16 16 15 15 14 14 14 14 13 13 13 13 11 11 11 13 14 15 15 14 13 14
24 23 22 21 19 18 17 17 17 16 16 17 17 17 18 18 17 16 16 16 15 15 16 15 14 16 15 15 13 13 13 11 13 13 12 13 14 14 14 15 14 14 13
23 23 22 20 19 18 18 17 17 17 17 16 17 16 17 16 15 14 15 15 15 15 16 16 15 15 15 15 14 14 14 15 15 14 14 14 14 14 15 14 13 14 12
22 22 21 21 20 19 19 18 19 18 17 17 17 16 16 15 13 14 13 15 15 14 16 16 16 17 18 17 14 15 15 15 16 15 14 14 14 14 14 14 13 13 14
21 22 21 21 21 21 21 20 19 19 19 18 17 16 15 10 18 21 15 14 15 13 14 15 15 18 18 20 21 22 20 15 5 5 14 14 14 15 15 14 16 13 9
23 23 22 22 22 22 21 20 19 19 19 18 17 16 16 14 20 23 23 13 14 14 13 13 14 13 16 13 16 19 19 21 20 17 16 17 16 16 17 17 14 12 9
23 24 23 22 22 22 22 21 20 20 19 17 17 17 16 15 21 23 26 17 15 15 15 15 14 14 14 14 13 14 14 14 14 14 16 16 17 20 22 17 13 8 8
23 23 23 23 23 22 23 23 23 23 23 22 21 22 21 18 22 23 24 21 19 18 16 16 15 14 17 19 18 15 16 17 19 22 23 24 26 22 18 13 -3 -6 3
23 23 23 24 25 25 25 24 25 25 24 23 23 23 21 20 21 24 24 22 19 19 18 16 21 17 18 20 19 13 13 16 17 15 17 15 13 10 13 8 8 -3 5
24 24 24 25 27 26 27 27 26 25 24 24 23 22 19 18 18 23 25 22 21 18 18 17 16 20 22 22 23 20 18 19 16 16 12 9 8 8 8 8 8 8 5
26 25 26 28 29 28 28 27 26 25 24 23 21 18 17 17 18 21 24 25 24 18 17 17 16 20 21 22 22 22 23 23 11 4 -1 3 5 6 7 8 8 7 6
30 30 30 30 30 30 29 27 24 24 22 20 18 17 16 15 15 21 22 24 24 23 21 20 22 22 23 23 23 23 25 16 10 7 7 4 5 6 7 7 6 7 7
29 28 28 28 26 25 25 23 22 20 19 18 17 17 15 13 13 14 16 16 21 21 21 20 21 23 24 24 20 21 21 15 12 9 6 5 6 6 4 5 3 3 1
25 22 23 22 22 20 18 19 19 16 19 17 16 14 10 9 11 15 13 8 6 13 13 0 3 10 13 14 15 15 15 13 10 9 7 4 3 4 3 3 2 -3 -4
20 19 19 18 17 17 16 12 20 19 21 21 19 14 8 15 16 18 19 20 21 21 15 11 12 13 13 13 12 12 9 10 10 9 5 1 1 1 -0 -1 -1 -4 -5
19 16 16 15 14 13 12 15 13 14 21 22 22 22 20 16 20 20 21 23 25 23 19 10 8 7 9 10 10 10 10 7 9 6 4 1 -3 -4 -5 -8 -5 -4 -7
11 12 11 9 9 8 9 9 10 10 10 6 19 21 21 21 19 17 17 12 3 3 -1 -5 -10 -7 -2 2 4 4 3 4 3 2 1 -1 -5 -6 -13 -10 -7 -14 -10
9 7 5 5 4 5 5 3 3 3 1 -1 2 8 7 13 12 12 8 -7 -16 -17 -19 -18 -19 -18 -16 -14 -9 -8 -5 -3 -3 -6 -7 -6 -8 -11 -13 -9 -9 -8 -8
4 6 4 2 1 1 2 1 0 -0 -1 -1 -1 -1 -2 -2 -5 -6 -18 -22 -23 -23 -24 -25 -23 -25 -24 -21 -18 -15 -16 -16 -13 -11 -8 -8 -9 -10 -10 -10 -11 -10 -15
-2 -2 -1 -2 -3 -4 -3 -2 -1 -3 -3 -6 -2 -0 4 -4 -11 -17 -19 -21 -24 -26 -25 -26 -25 -26 -23 -22 -21 -21 -22 -18 -17 -9 -8 -10 -11 -14 -11 -10 -11 -15 -12
-7 -8 -7 -7 -6 -4 -6 -5 -6 -5 -5 -5 -7 -6 5 -11 -17 -19 -22 -25 -26 -27 -26 -27 -24 -24 -22 -21 -17 -18 -19 -17 -17 -8 -7 -10 -12 -11 -13 -13 -15 -18 -15
-7 -7 -8 -11 -9 -8 -11 -13 -13 -12 -12 -12 -15 -12 -17 -21 -23 -24 -24 -26 -27 -24 -24 -28 -26 -21 -21 -24 -22 -14 -12 -16 -13 -7 -8 -11 -10 -12 -16 -19 -24 -28 -22
-10 -10 -10 -13 -14 -15 -15 -17 -13 -14 -18 -20 -23 -24 -20 -23 -27 -24 -25 -25 -26 -26 -27 -26 -24 -21 -21 -22 -25 -21 -15 -14 -15 -9 -9 -10 -11 -13 -17 -26 -28 -25 -19
-15 -12 -13 -15 -17 -16 -15 -18 -15 -22 -24 -21 -23 -23 -23 -25 -25 -26 -26 -26 -26 -26 -21 -20 -21 -20 -18 -17 -18 -20 -20 -7 -11 -10 -12 -13 -15 -19 -29 -30 -29 -26 -21
-17 -15 -17 -18 -19 -20 -16 -15 -20 -19 -20 -21 -22 -25 -23 -21 -22 -24 -23 -25 -22 -21 -21 -20 -20 -20 -18 -17 -17 -14 -12 -6 -8 -8 -12 -15 -20 -24 -30 -28 -29 -24 -19

GFSGL_sfc_dewp_048.txt.gz
Dewpoint
33 30 28 27 25 23 23 21 19 18 17 17 16 16 17 17 17 17 17 17 17 17 17 17 17 17 16 16 16 15 15 16 14 13 13 12 12 13 14 16 17 15 15
31 27 26 24 23 22 21 19 19 17 17 16 16 17 17 17 18 16 16 17 16 15 15 15 15 14 14 14 14 13 14 15 13 11 11 11 12 13 15 15 14 14 14
29 27 25 23 22 22 20 18 17 16 16 17 17 17 17 17 17 17 16 16 16 15 15 14 14 15 15 14 13 13 13 11 13 13 11 13 14 14 14 15 15 15 14
29 27 25 23 22 21 20 18 17 16 16 16 17 17 18 17 16 16 15 16 16 16 16 15 14 15 15 15 14 14 13 14 14 13 13 13 14 15 15 15 13 14 13
28 27 26 24 22 21 20 19 18 17 16 16 17 18 18 17 14 15 14 17 15 15 16 15 15 16 18 18 15 15 15 15 15 15 14 14 13 14 15 15 15 14 14
27 27 26 24 22 23 21 20 18 17 18 18 17 17 17 13 20 21 17 16 15 13 14 15 16 20 20 22 22 21 17 15 5 8 14 14 14 15 16 15 15 15 11
28 27 25 24 23 22 21 20 18 18 18 17 17 17 17 15 22 25 23 16 15 13 13 13 14 14 18 15 20 23 23 25 23 16 16 16 15 17 16 17 17 14 12
27 26 25 24 24 23 21 20 19 18 18 18 18 18 17 17 23 26 28 19 15 15 13 14 13 14 15 14 14 15 15 15 15 14 15 16 17 17 19 21 16 9 9
26 25 25 24 24 22 22 20 20 20 20 21 23 23 22 21 23 29 30 24 19 16 14 14 15 15 17 20 18 16 16 16 18 21 22 23 25 29 23 14 -0 -4 2
25 24 24 25 25 24 23 23 23 23 24 24 25 25 24 24 26 32 31 25 23 21 19 16 21 17 20 22 20 17 15 16 17 16 17 20 19 13 15 11 10 -1 2
25 24 24 24 26 25 25 25 26 26 25 25 24 24 25 24 25 31 31 24 23 22 21 20 18 22 24 25 25 20 18 19 17 19 15 15 13 11 10 8 6 8 7
24 24 25 27 27 27 27 27 27 26 25 24 24 24 23 23 25 28 26 26 26 23 21 20 19 22 23 24 23 24 24 24 21 11 9 9 9 9 8 8 8 8 8
24 25 27 28 28 29 28 27 26 26 26 25 23 23 22 19 19 25 25 26 26 25 23 22 22 23 24 24 25 24 24 24 16 10 8 9 8 8 6 7 8 8 7
29 29 29 29 29 29 30 28 28 26 25 24 22 23 22 17 17 16 19 22 23 24 23 19 23 25 26 25 20 21 21 20 17 15 14 12 8 8 7 6 3 3 -1
29 26 28 28 27 26 24 25 25 22 26 24 23 22 17 15 16 18 17 13 13 15 9 2 6 8 8 10 11 16 18 18 15 14 12 9 7 7 5 5 3 -5 -9
22 22 23 22 21 21 19 18 21 21 23 22 22 18 13 18 19 21 22 21 20 19 7 4 5 8 12 13 13 12 9 9 9 9 7 7 6 5 3 1 0 -9 -10
19 18 18 17 17 16 16 16 17 20 24 24 23 21 19 19 20 20 20 21 22 19 12 5 3 0 0 4 4 4 4 5 6 3 4 2 4 1 -0 -5 -5 -5 -11
13 13 13 12 13 13 13 13 15 16 14 10 21 23 24 22 22 22 21 15 7 6 4 2 -1 -3 -7 -7 -6 -6 -6 -4 -3 -2 -2 -3 -4 -5 -8 -12 -9 -11 -9
10 9 9 8 9 9 9 7 7 7 7 5 7 11 11 19 18 15 11 2 -1 -4 -7 -12 -18 -19 -18 -20 -20 -19 -16 -14 -13 -15 -16 -14 -10 -10 -12 -9 -7 -6 -6
4 7 3 3 2 2 3 2 1 -0 0 1 -2 -6 -8 -4 -5 -9 -9 -10 -8 -9 -12 -21 -25 -28 -28 -27 -26 -25 -23 -23 -23 -23 -22 -16 -10 -9 -8 -10 -9 -9 -9
-1 -0 -1 -2 -4 -5 -5 -3 -2 -3 -4 -7 -7 -2 5 -1 -2 -9 -14 -17 -18 -23 -25 -27 -27 -29 -30 -30 -29 -27 -27 -21 -25 -24 -22 -19 -14 -18 -11 -9 -8 -9 -9
-5 -7 -7 -8 -7 -5 -7 -6 -6 -6 -6 -3 -3 -1 8 -6 -10 -11 -13 -21 -25 -26 -28 -28 -29 -30 -28 -27 -26 -25 -24 -22 -25 -25 -21 -19 -19 -16 -13 -10 -11 -10 -12
-7 -7 -8 -11 -9 -9 -10 -10 -6 -6 -7 -8 -9 -8 -11 -15 -13 -15 -19 -25 -27 -26 -30 -32 -30 -26 -26 -26 -25 -19 -18 -18 -18 -22 -19 -21 -19 -15 -13 -13 -13 -16 -20
-10 -10 -10 -14 -13 -13 -13 -16 -14 -12 -11 -14 -18 -17 -13 -16 -20 -22 -25 -27 -27 -29 -32 -31 -27 -24 -24 -24 -27 -27 -24 -20 -24 -19 -16 -16 -16 -13 -12 -14 -17 -22 -25
-16 -14 -15 -16 -18 -18 -18 -19 -17 -19 -19 -16 -15 -16 -17 -19 -19 -20 -19 -25 -27 -28 -24 -25 -25 -23 -21 -20 -21 -24 -24 -11 -18 -18 -22 -21 -21 -19 -23 -28 -29 -31 -28
-19 -19 -21 -22 -22 -23 -21 -18 -19 -15 -14 -12 -14 -16 -16 -16 -16 -21 -23 -25 -24 -23 -23 -22 -22 -21 -20 -19 -19 -16 -15 -9 -12 -12 -18 -18 -20 -23 -28 -29 -32 -29 -25